Regional Weather Roundup
Issued by NWS

Home | Current Version | Previous Version | Text Only | Print | Product List | Glossary Off
Versions: 1 2 3 4 5 6 7 8 9 10 11 12 13 14 15 16 17 18 19 20 21 22 23 24 25 26 27

407
ASUS45 KBOU 220407
RWRCO

WEATHER ROUNDUP FOR COLORADO
NATIONAL WEATHER SERVICE DENVER/BOULDER CO
1000 PM MDT THU MAY 21 2015

NOTE: "FAIR" INDICATES FEW OR NO CLOUDS BELOW 12000 FEET WITH NO
SIGNIFICANT WEATHER AND/OR OBSTRUCTIONS TO VISIBILITY.

COZ001>005-013-030-031-220500-
...NORTHWEST COLORADO...

CITY           SKY/WX    TMP DP  RH WIND       PRES   REMARKS
CRAIG          CLOUDY    52  40  63 E12       29.99S
HAYDEN         CLOUDY    48  39  71 NE13      30.02F
MEEKER         CLOUDY    53  39  59 CALM      29.99S
MOUNT WERNER   NOT AVBL
STEAMBOAT SPGS CLOUDY    49  39  69 E9        30.06R
WALDEN         CLOUDY    43  36  75 S8        30.11R
$$

COZ006>008-011-220500-
...WEST CENTRAL VALLEYS...

CITY           SKY/WX    TMP DP  RH WIND       PRES   REMARKS
GRAND JUNCTION MOCLDY    55  43  63 CALM      29.88S
MONTROSE       MOCLDY    54  40  59 W8        29.96S
EAGLE          CLOUDY    50  45  81 CALM      30.06R
RIFLE          LGT RAIN  56  43  61 E8        29.96R
DELTA          MOCLDY    59  43  55 CALM      29.94R
NUCLA          CLOUDY    57  36  44 CALM      29.98R
$$

COZ017>023-064>068-220500-
...SOUTHWEST COLORADO...

CITY           SKY/WX    TMP DP  RH WIND       PRES   REMARKS
DURANGO        CLOUDY    50  40  68 S7        30.05R
CORTEZ         LGT RAIN  56  41  57 S20G28    30.00R
PAGOSA SPRINGS CLOUDY    45  40  85 CALM      30.09R
TELLURIDE      CLOUDY    46  32  57 CALM      30.09S
WOLF CREEK PAS NOT AVBL
$$

COZ009-010-012-014-032>034-037-058>063-220500-
...CENTRAL COLORADO...

CITY           SKY/WX    TMP DP  RH WIND       PRES   REMARKS
ASPEN          CLOUDY    45  40  82 S5        30.05R
BUENA VISTA    CLOUDY    43  38  85 E5        30.15S
COPPER MTN     CLOUDY    36  30  80 SE7       30.25R
BERTHOUD PASS  SNOW      27  19  74 E21G39    30.27F VSB<1/4 WCI  13
COTTONWOOD PAS MIX PCPN  39  36  87 E7        30.20S VSB 1/4
GUNNISON       CLOUDY    52  36  54 E7        30.07S
KREMMLING      LGT RAIN  45  39  81 S6        30.11S
LEADVILLE      CLOUDY    36  35  96 CALM      30.17R
SALIDA         CLOUDY    44  40  87 E12G20    30.20F
SUNLIGHT       LGT RAIN  37  34  87 CALM      30.21S
WILKERSON PASS SNOW      32  30  93 S12       30.27F VSB 1/4 WCI  23
$$

COZ069>075-220500-
...SAN LUIS VALLEY/SANGRE DE CRISTO MOUNTAINS...

CITY           SKY/WX    TMP DP  RH WIND       PRES   REMARKS
ALAMOSA        CLOUDY    45  39  79 SE17      30.11R
LA VETA PASS   LGT RAIN N/A N/A N/A MISG      30.23S VSB 1/4
SAGUACHE       CLOUDY    46  37  71 SE13      30.10S
$$

COZ035-036-038>040-220500-
...NORTHERN COLORADO FRONT RANGE...

CITY           SKY/WX    TMP DP  RH WIND       PRES   REMARKS
DENVER INTL AP CLOUDY    50  45  83 SE12      30.12S
DMNS CITY PARK   N/A     50  43  77 E3        30.11S
AURORA         CLOUDY    49  45  86 E3        30.12S
FRONT RANGE AP NOT AVBL
ERIE MUNI ARPT CLOUDY    50  46  84 CALM      30.11S
BOULDER MUN AP CLOUDY    50  46  87 N5        30.08F
CENTENNIAL     CLOUDY    49  44  83 S10       30.12S
BROOMFIELD     CLOUDY    50  45  81 CALM      30.12F
FORT COLLINS   CLOUDY    52  45  76 E5        30.12S
LONGMONT       CLOUDY    53  46  78 CALM      30.12F
$$

COZ041-046-047-076>085-087-088-220500-
...PIKES PEAK/PALMER DIVIDE AND SOUTHERN FOOTHILLS...

CITY           SKY/WX    TMP DP  RH WIND       PRES   REMARKS
COLO. SPRINGS  LGT RAIN  45  45 100 E9        30.16S FOG
A. F. ACADEMY  CLOUDY    45  45 100 SE8       30.15S
ELLICOTT       NOT AVBL
FALCON         LGT RAIN  43  42  99 SE12      30.18S VSB 1/2
FORT CARSON    DRIZZLE   46 N/A N/A E3        30.15R
LIMON          CLOUDY    45  43  93 SE14      30.17R
MONUMENT HILL  NOT AVBL
TRINIDAD       LGT RAIN  48  43  82 SW17      30.15R
$$

COZ042>045-048>051-090-091-220500-
...NORTHEAST COLORADO...

CITY           SKY/WX    TMP DP  RH WIND       PRES   REMARKS
GREELEY ARPT   CLOUDY    52  45  76 SE15      30.11S
AKRON          CLOUDY    47  46  97 SE13      30.17R
BURLINGTON     CLOUDY    50  44  80 SE7       30.18S
WRAY           CLOUDY    53  44  72 SE6       30.19R
STERLING       CLOUDY    52  45  76 S13G24    30.15S
HOLYOKE        NOT AVBL
FORT MORGAN    CLOUDY    50  43  77 SE10      30.15S
$$

COZ086-089-092>099-220500-
...SOUTHEAST COLORADO...

CITY           SKY/WX    TMP DP  RH WIND       PRES   REMARKS
PUEBLO         CLOUDY    51  47  86 E14       30.10R
LA JUNTA       CLOUDY    52  45  77 SE14      30.13R
LAMAR          CLOUDY    51  46  83 SE10      30.16R
SPRINGFIELD      N/A     48  45  89 SE12      30.17R
$$



USA.gov is the U.S. government's official web portal to all federal, state and local government web resources and services.